Terminal Aerodrome Forecast
Issued by NWS Green Bay, WI

Home | Current Version | Previous Version | Text Only | Print | Product List | Glossary On
Versions: 1 2 3 4 5 6 7 8 9 10 11 12 13 14 15 16 17 18 19 20 21 22 23 24 25 26 27 28 29 30 31 32 33 34 35 36 37 38
000
FTUS43 KGRB 310848 AAA
TAFGRB
TAF AMD
KGRB 310848Z 3109/0106 33003KT P6SM SCT050
      TEMPO 3109/3113 BKN050
     FM311400 05006KT P6SM SCT050
     FM010100 VRB02KT P6SM SKC=

USA.gov is the U.S. government's official web portal to all federal, state and local government web resources and services.